Regional Weather Roundup
Issued by NWS

Home | Current Version | Previous Version | Graphics & Text | Print | Product List | Glossary On
Versions: 1 2 3 4 5 6 7 8 9 10 11 12 13 14 15 16 17 18 19 20 21 22 23 24 25 26 27 28 29 30 31 32 33 34 35 36 37 38 39 40 41 42 43 44 45 46 47 48 49 50
728
ASUS44 KMEG 282100
RWRTN
TENNESSEE HOURLY STATE WEATHER ROUNDUP
NATIONAL WEATHER SERVICE MEMPHIS TN
400 PM CDT SAT MAY 28 2016

TNZ002-004-019-021-049-052-054-088>092-282200-
WEST TENNESSEE

CITY           SKY/WX    TMP DP  RH WIND       PRES   REMARKS
MEMPHIS INTL   CLOUDY    84  70  62 SW8       30.01S
NWS MEMPHIS      N/A     83 N/A N/A MISG        N/A
JACKSON        CLOUDY    83  68  60 SE7       30.02S
DYERSBURG      PTSUNNY   82  68  61 S8        30.00F
UNION CITY     SUNNY     82  70  65 S9        30.00F
PARIS          MOSUNNY   82  66  57 S8        30.03F
LEXINGTON      MOSUNNY   84  63  48 S8        30.02F
$$

TNZ008-025-027-028-033-062-065-066-282200-
NORTH MIDDLE TENNESSEE

CITY           SKY/WX    TMP DP  RH WIND       PRES   REMARKS
NASHVILLE      CLOUDY    80  64  58 SE8       30.09F
CLARKSVILLE    CLOUDY    81  65  58 S6        30.05S
COOKEVILLE     SUNNY     82  63  51 VRB5      30.10F
CROSSVILLE     SUNNY     79  59  50 CALM      30.15F
$$

TNZ061-075-076-078-094-096-097-282200-
SOUTH MIDDLE TENNESSEE

CITY           SKY/WX    TMP DP  RH WIND       PRES   REMARKS
TULLAHOMA      SUNNY     72  68  88 SW5       30.12F
WINCHESTER     SUNNY     73  64  73 CALM      30.11F
MCMINNVILLE    SUNNY     73  64  73 W6        30.12S
COLUMBIA       SUNNY     82  66  57 S9        30.07S
SHELBYVILLE    SUNNY     77  70  78 CALM      30.11F
$$

TNZ017-018-042-046-047-282200-
NORTHEAST TENNESSEE

CITY           SKY/WX    TMP DP  RH WIND       PRES   REMARKS
TRI CITIES     PTSUNNY   85  52  32 VRB3      30.13S
$$

TNZ012-013-036-069-073-074-282200-
CENTRAL EAST TENNESSEE

CITY           SKY/WX    TMP DP  RH WIND       PRES   REMARKS
KNOXVILLE      PTSUNNY   85  62  46 NE6       30.09F
OAK RIDGE      PTSUNNY   85  61  44 CALM      30.11F
GATLINBURG     MOSUNNY   82  59  44 VRB3      30.09S
$$

TNZ083-085-099-282200-
SOUTHEAST TENNESSEE

CITY           SKY/WX    TMP DP  RH WIND       PRES   REMARKS
CHATTANOOGA    PTSUNNY   88  54  31 VRB5      30.08F
$$

SKY/WX REPORTED AS FAIR MEANS FEW OR NO CLOUDS BELOW
12 THOUSAND FEET.





USA.gov is the U.S. government's official web portal to all federal, state and local government web resources and services.